Temperature
9 10 9 9 10 10 9 10 10 12 12 14 14 13 13 14 13 13 14 14 14 14 14 15 15 15 15 14 14 14 13 13 13 11 10 8 6 5 3 2 1 0 -0 -1
8 9 8 8 9 10 10 10 10 11 11 13 13 12 12 12 12 12 13 13 14 14 14 14 14 14 14 14 13 13 13 13 12 11 9 7 6 4 2 1 1 -0 -1 -1
7 9 8 8 9 10 10 9 9 10 12 11 10 10 11 11 12 12 12 13 13 13 13 13 13 13 13 13 13 13 12 12 11 10 9 7 5 3 2 1 0 -0 -1 -1
5 8 8 11 10 10 10 10 10 10 10 10 10 11 12 12 12 12 12 12 12 12 12 13 13 12 12 12 12 12 11 11 10 9 8 6 4 3 2 1 0 -0 -1 -1
5 5 7 8 9 9 9 9 10 10 10 10 11 10 11 12 11 11 11 11 11 11 11 11 12 11 11 11 11 11 11 10 9 8 7 6 4 3 2 1 0 -0 -1 -1
4 5 7 9 10 11 10 9 11 11 10 10 9 7 8 11 10 10 10 10 10 10 10 11 11 10 10 10 10 10 10 9 8 7 6 5 4 3 1 0 -0 -1 -1 -1
4 4 7 8 8 10 9 10 11 11 10 10 8 8 9 9 9 9 9 9 9 9 9 10 10 9 9 9 9 9 9 8 8 7 6 5 3 1 0 -1 -1 -1 -1 -2
3 4 6 8 8 9 10 11 11 10 10 9 9 9 9 8 8 8 8 8 8 8 9 9 9 8 8 8 8 7 7 7 7 6 5 4 2 1 -1 -2 -2 -2 -2 -2
5 7 9 10 10 11 11 10 10 9 9 9 8 8 8 8 8 8 8 8 8 7 7 8 8 7 7 7 6 6 6 7 6 5 4 3 1 -0 -1 -2 -3 -3 -2 -2
5 6 7 9 10 10 10 9 9 9 8 8 7 7 7 6 6 6 7 7 6 6 6 7 7 6 6 6 5 5 6 6 5 4 3 1 0 -1 -2 -2 -2 -2 -3 -2
6 6 7 8 9 9 9 8 8 7 7 7 6 6 5 5 6 6 6 6 5 5 5 5 5 5 5 5 5 5 5 5 4 4 2 1 -1 -1 -2 -2 -2 -2 -2 -2
7 8 7 7 8 8 7 7 6 6 6 6 5 5 5 5 5 5 5 5 5 4 4 4 4 5 5 4 4 4 4 4 3 2 1 -0 -1 -2 -3 -3 -3 -3 -3 -3
7 8 7 7 7 6 6 5 5 5 5 5 5 4 4 4 4 4 4 4 4 3 3 3 3 3 4 3 3 3 3 3 2 2 1 -1 -2 -3 -3 -4 -5 -5 -4 -4
6 6 6 6 5 5 5 5 5 5 4 4 4 4 3 3 4 4 4 3 3 2 3 2 2 3 2 2 2 2 2 2 2 1 -0 -1 -3 -4 -4 -4 -5 -5 -4 -4
5 5 5 4 4 4 4 4 4 4 4 4 4 3 3 3 3 3 3 2 2 2 2 2 2 2 1 1 1 1 1 1 1 0 -1 -2 -3 -4 -5 -5 -5 -5 -5 -4
4 4 4 4 4 4 4 4 3 3 3 3 3 3 2 2 2 2 2 1 1 1 1 1 1 1 1 0 0 0 1 0 0 -0 -1 -3 -4 -5 -6 -6 -6 -6 -5 -5
3 3 4 4 3 3 3 3 3 2 2 2 2 1 1 1 1 1 1 1 0 0 1 0 0 0 0 -0 -0 -0 -0 -0 -1 -1 -2 -3 -4 -5 -6 -6 -6 -6 -6 -5
4 4 4 3 3 3 3 2 2 2 2 1 1 1 1 0 0 0 -0 -0 -0 0 1 0 -0 -1 -0 -0 -1 -1 -1 -1 -1 -2 -3 -4 -5 -6 -6 -7 -7 -7 -6 -5
4 3 3 3 3 2 2 2 2 1 1 1 0 -0 -0 -0 -0 -0 -1 -1 -1 -0 0 -0 -1 -1 -1 -1 -1 -1 -1 -1 -2 -2 -3 -4 -5 -6 -7 -7 -7 -7 -6 -6
3 2 2 2 2 2 1 1 1 1 0 0 -0 -0 -0 -0 -1 -1 -1 -1 -1 -1 -1 -2 -1 -1 -1 -1 -2 -2 -2 -2 -2 -3 -3 -4 -5 -6 -7 -7 -7 -7 -7 -6
2 2 1 1 1 1 1 1 0 -0 -0 -1 -1 -1 -1 -1 -1 -2 -2 -2 -1 -1 -2 -2 -2 -2 -2 -2 -2 -2 -3 -3 -3 -3 -4 -4 -5 -6 -7 -7 -8 -7 -7 -6
1 1 0 0 0 0 0 -0 -0 -1 -1 -1 -1 -1 -2 -2 -2 -2 -2 -2 -2 -2 -2 -2 -2 -2 -2 -2 -3 -3 -3 -3 -4 -4 -4 -5 -6 -6 -7 -7 -7 -7 -7 -6
0 0 -0 -0 -0 -1 -1 -1 -1 -1 -2 -2 -2 -2 -2 -2 -3 -3 -3 -2 -2 -2 -3 -3 -2 -2 -2 -3 -3 -3 -3 -4 -4 -4 -4 -5 -6 -6 -7 -7 -7 -7 -7 -6
-0 -0 -1 -1 -1 -1 -1 -1 -2 -2 -2 -2 -2 -2 -3 -3 -3 -3 -3 -3 -3 -3 -3 -2 -2 -2 -3 -3 -3 -3 -4 -4 -4 -4 -5 -5 -6 -7 -7 -7 -7 -7 -7 -6
-1 -1 -1 -1 -2 -2 -2 -2 -3 -3 -3 -3 -3 -3 -3 -3 -4 -3 -3 -3 -3 -3 -2 -2 -2 -2 -3 -3 -3 -4 -4 -4 -4 -5 -5 -6 -6 -7 -7 -7 -7 -7 -7 -6
-1 -2 -2 -2 -2 -2 -3 -3 -4 -4 -4 -4 -4 -4 -4 -4 -4 -3 -3 -3 -3 -2 -2 -2 -2 -2 -3 -3 -3 -4 -4 -4 -5 -5 -6 -6 -6 -7 -7 -7 -7 -7 -6 -6
-2 -2 -2 -2 -2 -3 -3 -4 -4 -5 -5 -5 -5 -5 -5 -4 -4 -4 -3 -3 -3 -3 -2 -2 -2 -3 -3 -3 -4 -4 -4 -5 -5 -6 -6 -6 -7 -7 -7 -7 -7 -7 -6 -6
Wind_Speed
10 11 8 8 12 11 13 14 15 21 23 28 23 17 15 13 13 13 13 12 11 9 9 7 7 7 8 10 10 11 13 16 19 16 15 14 15 15 15 15 15 14 13 12
7 10 10 10 15 19 19 16 16 23 25 23 14 10 10 11 11 11 12 11 11 10 10 9 8 8 8 10 10 11 15 16 14 12 13 14 15 14 15 15 14 13 13 13
8 6 6 10 14 18 12 10 11 15 15 10 11 13 12 11 9 9 11 11 11 11 10 10 9 8 9 9 8 11 14 14 13 13 14 14 15 15 16 16 15 14 14 13
4 1 11 10 6 11 12 14 13 12 12 11 12 12 10 7 6 9 11 11 11 10 10 10 9 8 8 7 8 10 12 13 12 13 14 13 15 16 16 14 15 14 14 14
4 6 11 10 9 7 8 9 8 8 9 8 8 7 5 3 5 8 10 11 11 11 11 10 11 9 7 8 8 10 12 13 12 13 14 15 16 17 15 14 14 14 12 13
5 6 9 10 6 0 1 7 4 2 5 7 8 9 8 10 11 13 12 10 11 10 10 11 11 7 7 9 9 12 13 12 11 13 15 16 17 16 13 13 14 13 12 13
8 9 11 10 5 1 4 7 3 4 7 8 6 8 11 13 12 12 12 12 11 10 10 11 10 7 9 11 13 12 10 10 10 12 14 14 13 11 10 12 12 12 12 11
6 7 11 6 4 6 8 6 7 9 10 11 11 12 12 12 12 11 11 11 11 10 11 11 9 7 10 13 13 10 9 10 10 11 11 11 11 11 11 13 12 12 11 10
11 12 7 4 8 8 7 11 12 11 12 12 12 13 13 11 11 11 11 11 11 10 12 12 10 8 12 14 11 10 9 10 9 9 11 10 11 12 11 11 11 11 10 10
9 12 12 12 12 12 13 15 13 12 12 11 12 12 11 10 10 10 10 11 10 11 13 14 12 11 11 13 11 10 11 10 8 8 9 10 10 11 12 13 12 12 12 11
15 15 13 11 11 12 12 11 12 12 10 8 8 8 8 8 10 10 10 10 10 11 13 15 14 14 13 11 10 11 11 9 8 8 9 10 11 12 13 13 15 14 12 11
20 15 14 15 11 11 12 11 10 8 6 5 4 7 8 9 9 10 12 12 12 13 13 15 15 15 14 11 9 10 10 9 7 7 8 9 9 10 19 18 22 23 19 14
21 16 14 16 11 9 8 7 5 4 3 5 6 7 8 9 9 11 13 13 14 14 15 16 15 16 14 11 10 10 11 10 7 7 8 9 9 10 9 14 21 22 22 21
11 11 13 11 9 6 5 4 3 4 5 6 7 8 9 10 11 13 14 14 14 15 16 15 15 16 14 11 10 11 11 12 10 8 8 9 10 10 9 9 10 11 16 22
10 9 10 8 5 4 3 2 4 6 7 8 8 10 11 12 14 15 16 15 14 15 15 14 15 17 14 11 11 12 10 8 8 7 8 9 9 9 9 10 9 8 6 11
8 6 6 5 5 4 4 4 5 8 9 10 11 13 13 14 15 16 15 14 14 16 17 16 17 17 14 12 12 10 9 14 11 7 7 8 9 9 10 10 10 9 10 10
6 5 3 3 4 5 6 7 8 9 10 12 13 14 14 15 15 16 15 13 13 15 16 16 17 16 14 12 11 10 9 10 14 9 7 8 9 10 10 9 10 10 9 11
5 5 4 5 5 6 8 9 10 11 12 13 14 13 14 15 17 17 16 15 15 16 16 15 14 13 13 12 10 9 9 8 7 7 7 8 8 9 9 9 10 10 7 10
2 3 5 6 7 7 8 10 11 11 12 13 13 15 15 15 16 16 15 15 17 18 15 12 20 17 14 14 15 8 8 8 8 7 7 10 11 9 9 10 10 9 9 9
5 6 7 8 9 8 10 12 13 13 13 13 14 15 15 15 15 15 15 15 14 13 14 17 17 14 13 13 16 8 8 8 8 7 7 8 8 9 9 10 10 9 9 9
7 8 9 10 11 12 12 13 13 14 13 12 14 16 16 16 15 14 14 16 14 13 14 20 14 12 11 13 16 9 8 8 8 7 7 8 9 9 9 10 10 10 10 9
8 9 11 12 13 14 12 11 12 14 14 14 15 15 15 16 15 14 13 13 15 19 16 12 11 16 18 19 10 9 9 8 8 7 7 8 8 9 9 10 10 10 9 9
10 11 12 13 14 15 13 12 13 13 14 15 15 16 16 15 13 14 16 12 12 20 17 13 18 25 27 16 9 9 9 9 8 7 7 8 8 8 9 10 9 9 8 8
12 12 12 12 12 13 15 14 13 12 13 14 14 15 15 14 13 12 12 19 23 25 16 18 25 26 24 11 9 9 8 8 7 6 7 7 7 7 8 8 8 8 8 9
12 12 12 12 12 12 13 13 13 13 13 12 13 14 12 11 13 14 14 15 21 23 15 18 24 23 15 10 9 9 7 7 6 5 6 7 7 7 8 8 8 8 8 8
12 11 11 11 12 12 11 11 11 12 12 13 13 12 11 11 12 14 13 14 17 21 16 12 12 14 10 9 9 8 7 6 6 5 6 7 7 7 7 8 9 8 8 8
10 9 9 10 10 10 10 11 12 13 12 13 15 14 13 13 13 14 15 14 14 13 12 11 10 9 9 8 8 7 5 4 4 4 5 6 6 6 7 8 8 7 7 8
Wind_Direction
253 267 269 246 249 230 218 226 243 264 269 277 286 298 301 305 311 313 314 317 316 310 304 296 275 251 236 234 222 213 215 221 226 223 218 214 210 204 199 196 196 194 196 202
264 256 254 256 249 248 247 242 244 262 272 275 290 299 303 308 310 315 316 316 316 313 308 301 285 264 246 238 225 212 220 228 228 220 215 213 209 202 198 196 193 190 196 201
269 271 294 264 236 235 230 217 216 245 259 298 320 319 314 312 316 314 311 309 309 306 299 293 285 267 255 246 225 218 227 232 225 217 216 213 208 204 201 197 192 193 197 201
282 352 243 248 237 226 237 249 236 249 275 299 295 295 286 278 305 319 315 310 307 302 299 295 289 280 268 253 232 228 234 234 224 215 217 211 207 208 205 198 195 196 198 202
225 253 271 287 268 222 218 268 250 245 272 290 299 314 295 285 317 305 300 296 293 292 291 293 293 290 282 268 248 241 242 239 227 216 214 210 210 210 205 199 198 198 197 199
198 225 255 251 257 238 139 281 272 216 300 309 338 334 304 312 317 311 306 300 298 300 300 298 297 296 283 275 262 255 250 242 228 216 215 215 214 210 203 200 200 195 199 200
219 237 264 261 283 125 211 253 301 316 310 304 288 268 281 297 301 298 299 299 299 300 298 294 297 297 285 282 274 268 258 244 228 218 217 218 214 207 199 198 195 194 198 200
204 222 255 249 164 202 241 290 306 306 300 293 286 286 293 298 298 300 302 302 303 303 300 301 303 297 289 286 284 279 264 249 234 221 215 213 207 202 196 195 194 195 197 201
206 227 248 222 226 257 285 292 293 290 288 291 294 298 302 301 304 306 304 304 306 305 305 305 303 292 288 290 293 286 272 257 242 222 211 204 200 199 194 195 198 198 198 205
256 258 260 267 270 275 276 279 284 286 290 291 291 296 301 303 305 307 305 307 308 311 309 308 307 299 286 289 290 284 276 266 243 224 215 206 202 200 199 200 201 199 199 204
262 272 281 260 259 271 281 286 290 292 290 291 297 302 302 302 302 303 304 303 305 305 303 301 303 301 297 291 288 284 278 267 244 224 214 209 210 209 207 210 207 201 200 197
264 267 274 284 288 289 290 290 291 295 303 313 308 298 300 299 299 301 304 304 305 303 301 302 303 302 300 294 287 282 283 270 247 228 217 212 213 221 224 219 222 219 211 202
259 275 278 288 294 292 288 292 295 294 293 301 302 297 300 298 298 301 303 304 302 302 301 301 301 300 299 297 290 279 274 271 249 231 220 215 212 214 220 224 225 223 217 210
270 281 283 283 285 295 291 290 296 298 292 285 289 296 298 296 298 301 301 300 299 299 298 298 297 297 298 296 292 285 276 272 259 237 223 216 213 212 210 207 209 215 217 213
266 260 266 278 285 289 288 300 311 307 305 304 299 299 299 299 300 299 298 298 297 297 298 299 299 298 299 296 293 289 284 273 257 240 225 218 212 208 208 208 210 204 193 207
278 283 276 272 275 279 288 293 294 295 299 299 300 299 297 294 294 295 295 295 297 299 301 301 298 296 298 295 293 292 285 280 271 247 228 218 211 207 207 207 207 203 201 198
259 271 274 276 277 280 279 278 277 283 289 292 293 294 296 297 298 298 298 296 292 291 292 292 291 292 292 289 288 290 286 281 275 258 228 217 210 209 206 205 206 207 205 199
222 232 242 251 263 278 287 287 284 284 285 285 290 294 296 297 298 299 299 300 299 297 293 288 287 291 288 288 288 285 281 274 261 250 233 219 214 208 205 205 206 206 200 203
294 280 281 279 276 275 277 283 285 283 285 289 292 294 293 291 291 293 296 299 300 300 297 292 301 306 297 296 299 284 276 272 265 253 237 229 223 209 205 205 205 203 197 195
323 313 303 295 289 282 281 283 285 287 288 289 292 293 294 292 292 295 297 294 288 283 286 293 297 295 294 296 301 288 276 267 259 251 235 223 216 208 205 205 203 200 197 196
312 304 298 293 290 284 280 283 287 290 291 290 290 291 292 293 293 293 295 297 292 288 292 297 299 294 297 297 298 287 275 265 254 243 231 221 215 209 205 203 201 200 198 197
295 291 289 288 289 289 287 285 286 288 291 291 289 290 292 295 295 293 283 283 290 295 300 295 295 296 301 301 292 282 272 263 253 238 226 218 213 209 204 199 199 199 196 192
287 286 287 288 290 292 292 289 286 286 287 288 290 292 291 292 294 295 298 294 294 298 303 294 297 301 304 304 291 283 274 264 251 235 222 214 210 206 201 197 196 194 189 186
289 288 286 288 291 293 294 291 287 286 284 285 284 283 285 291 292 285 284 294 301 301 300 296 300 303 307 302 290 285 278 268 249 231 218 208 203 199 196 193 189 186 183 180
282 284 286 289 292 292 290 291 292 290 288 287 285 283 282 280 284 292 294 294 297 302 299 299 301 304 305 295 292 287 280 267 248 225 210 200 196 193 190 186 183 180 179 179
276 280 280 279 281 285 288 290 290 291 293 295 295 294 293 291 289 292 295 294 293 298 300 297 297 298 297 294 291 286 278 271 258 232 204 192 188 185 182 180 174 175 173 173
274 276 280 282 281 279 280 283 287 290 291 293 296 297 297 297 297 297 297 299 299 297 297 296 296 294 292 291 288 284 273 255 234 213 193 183 177 175 174 170 170 167 164 165
Height
1534 1529 1530 1529 1526 1525 1525 1518 1514 1494 1487 1472 1465 1465 1461 1458 1454 1449 1445 1441 1438 1435 1433 1431 1428 1426 1425 1423 1420 1417 1414 1410 1407 1405 1403 1402 1402 1403 1406 1409 1412 1415 1418 1420
1531 1526 1525 1524 1518 1512 1507 1504 1499 1489 1480 1465 1465 1462 1459 1455 1452 1448 1444 1441 1438 1434 1431 1428 1426 1423 1420 1417 1414 1410 1406 1402 1399 1396 1394 1392 1392 1394 1396 1399 1402 1405 1408 1410
1529 1522 1521 1517 1501 1496 1493 1488 1487 1483 1470 1463 1463 1459 1456 1453 1450 1447 1444 1440 1437 1433 1429 1426 1422 1418 1414 1411 1407 1403 1399 1394 1391 1387 1384 1383 1383 1384 1385 1388 1392 1395 1398 1401
1533 1523 1521 1493 1483 1482 1481 1476 1474 1470 1465 1464 1463 1458 1455 1452 1450 1446 1443 1439 1434 1430 1425 1421 1417 1413 1408 1404 1400 1395 1391 1386 1382 1378 1375 1374 1373 1373 1375 1378 1381 1384 1388 1391
1534 1527 1506 1493 1480 1476 1477 1473 1466 1465 1464 1462 1459 1454 1451 1450 1447 1444 1440 1435 1430 1426 1420 1416 1411 1406 1401 1397 1392 1387 1382 1378 1374 1370 1366 1364 1362 1363 1365 1368 1371 1375 1379 1383
1530 1527 1508 1484 1472 1470 1473 1474 1463 1462 1461 1459 1456 1456 1448 1445 1442 1437 1433 1429 1424 1419 1414 1410 1405 1399 1394 1389 1384 1379 1375 1370 1365 1361 1358 1355 1354 1354 1356 1358 1362 1366 1370 1374
1523 1518 1494 1477 1472 1472 1478 1470 1462 1460 1458 1456 1454 1451 1444 1440 1436 1432 1427 1423 1418 1413 1408 1404 1398 1392 1387 1382 1376 1371 1366 1361 1356 1352 1349 1347 1346 1346 1347 1350 1354 1358 1362 1366
1516 1514 1495 1469 1471 1471 1466 1460 1459 1456 1454 1450 1446 1442 1437 1433 1428 1424 1419 1415 1411 1405 1401 1397 1392 1385 1379 1374 1369 1363 1357 1352 1348 1344 1341 1339 1338 1338 1339 1342 1345 1349 1353 1357
1493 1481 1468 1465 1464 1462 1461 1457 1454 1451 1448 1445 1439 1435 1431 1427 1422 1418 1414 1409 1404 1398 1393 1389 1384 1378 1371 1366 1361 1355 1349 1344 1340 1336 1333 1331 1330 1330 1331 1333 1336 1340 1344 1349
1479 1466 1462 1460 1459 1458 1456 1452 1448 1446 1442 1438 1433 1429 1425 1422 1417 1413 1408 1403 1397 1392 1385 1380 1376 1371 1365 1359 1353 1347 1342 1337 1332 1328 1325 1323 1322 1322 1323 1324 1327 1331 1335 1340
1469 1461 1457 1453 1453 1451 1449 1446 1442 1439 1436 1432 1428 1424 1421 1416 1412 1407 1402 1397 1391 1385 1379 1373 1368 1362 1357 1351 1345 1339 1334 1329 1325 1321 1317 1315 1315 1315 1315 1317 1320 1324 1328 1332
1458 1454 1454 1447 1448 1446 1442 1438 1435 1432 1429 1426 1423 1420 1416 1412 1407 1402 1396 1390 1384 1378 1372 1365 1360 1354 1349 1344 1338 1332 1326 1322 1318 1314 1310 1308 1307 1307 1308 1310 1314 1317 1321 1326
1450 1448 1446 1442 1440 1438 1435 1432 1430 1427 1425 1423 1419 1416 1411 1406 1401 1396 1390 1383 1377 1370 1364 1358 1352 1346 1342 1336 1331 1325 1320 1315 1310 1307 1303 1301 1300 1300 1301 1304 1306 1310 1314 1318
1447 1444 1438 1436 1434 1432 1430 1428 1426 1424 1422 1419 1415 1411 1406 1400 1394 1389 1383 1377 1370 1363 1357 1350 1344 1339 1334 1329 1324 1318 1313 1308 1304 1300 1297 1294 1293 1294 1295 1296 1299 1302 1306 1311
1439 1437 1433 1430 1429 1427 1426 1425 1423 1420 1417 1414 1410 1405 1400 1394 1387 1381 1376 1369 1362 1356 1349 1343 1337 1332 1327 1322 1316 1311 1306 1301 1297 1293 1290 1288 1287 1287 1288 1290 1292 1296 1300 1305
1433 1431 1428 1426 1425 1424 1423 1421 1419 1416 1412 1408 1403 1399 1393 1387 1380 1374 1368 1362 1355 1347 1341 1336 1330 1325 1320 1315 1309 1304 1299 1295 1290 1286 1283 1281 1280 1281 1281 1283 1286 1289 1293 1297
1427 1425 1424 1423 1423 1422 1420 1418 1416 1412 1407 1403 1397 1391 1385 1379 1372 1365 1360 1354 1348 1341 1335 1329 1323 1318 1313 1308 1303 1297 1292 1288 1284 1280 1276 1275 1274 1274 1275 1277 1280 1283 1287 1291
1424 1423 1423 1422 1421 1419 1417 1414 1411 1406 1402 1396 1390 1384 1378 1371 1364 1357 1351 1345 1339 1332 1328 1323 1317 1310 1306 1301 1296 1290 1285 1281 1277 1274 1271 1269 1268 1268 1270 1272 1274 1278 1281 1286
1423 1422 1422 1420 1418 1416 1412 1409 1405 1400 1395 1389 1383 1376 1370 1364 1357 1351 1344 1338 1330 1323 1319 1315 1310 1304 1299 1294 1289 1283 1279 1274 1271 1267 1265 1263 1262 1262 1264 1266 1269 1272 1276 1280
1421 1420 1419 1417 1414 1411 1407 1402 1397 1392 1387 1382 1375 1368 1361 1356 1350 1343 1337 1330 1325 1319 1312 1307 1302 1296 1291 1286 1282 1276 1272 1268 1264 1261 1259 1257 1257 1257 1259 1261 1264 1267 1271 1275
1419 1417 1414 1411 1408 1404 1400 1395 1390 1384 1378 1374 1367 1360 1353 1347 1342 1336 1328 1321 1316 1312 1306 1300 1295 1290 1284 1279 1274 1269 1265 1261 1258 1255 1253 1251 1251 1252 1253 1256 1259 1262 1266 1270
1414 1411 1408 1404 1400 1395 1391 1387 1381 1376 1370 1365 1359 1353 1346 1339 1333 1327 1322 1316 1308 1304 1298 1293 1287 1282 1277 1272 1267 1262 1258 1254 1251 1248 1247 1246 1246 1247 1248 1251 1254 1258 1261 1265
1408 1404 1400 1396 1392 1386 1381 1377 1373 1367 1361 1356 1350 1344 1338 1332 1326 1320 1312 1307 1302 1296 1291 1285 1280 1275 1270 1264 1259 1255 1251 1247 1244 1242 1241 1240 1241 1242 1244 1246 1250 1253 1257 1261
1400 1396 1392 1388 1383 1377 1371 1367 1363 1358 1353 1347 1342 1336 1330 1323 1317 1313 1307 1300 1295 1290 1284 1278 1273 1268 1262 1257 1252 1247 1244 1240 1238 1236 1235 1235 1236 1238 1240 1243 1246 1250 1254 1258
1391 1387 1383 1379 1374 1369 1363 1358 1353 1348 1343 1337 1332 1327 1322 1317 1311 1304 1299 1293 1288 1282 1276 1271 1266 1261 1255 1250 1245 1241 1237 1234 1232 1231 1230 1231 1232 1234 1236 1239 1243 1247 1251 1255
1382 1378 1375 1371 1367 1361 1356 1351 1345 1339 1334 1328 1322 1318 1313 1308 1303 1297 1291 1286 1280 1275 1269 1264 1259 1254 1248 1243 1239 1235 1231 1229 1227 1226 1226 1227 1228 1231 1233 1237 1240 1244 1249 1253
1372 1369 1366 1362 1358 1353 1348 1343 1337 1332 1327 1321 1315 1309 1305 1299 1294 1289 1284 1279 1274 1268 1263 1258 1253 1247 1242 1238 1233 1230 1226 1224 1223 1222 1223 1224 1226 1228 1231 1235 1239 1243 1247 1251